#timestamp,LO_Frequency,Hit,StdDev 
1600886075.4,286047047.5,P
1600886095.3,286047046.1,P
1600886115.1,286047049.1,P
1600886135.9,286047049.5,Y
1600886155.7,286047005.7,P
1600886175.5,286047006.7,N
1600886195.4,286047010.5,N
1600886215.2,286047009.7,N
1600886235.0,286047010.3,N
1600886235.9,286047010.3,N
1600886255.8,286047010.5,N
1600886275.6,286047012.0,N
1600886295.5,286047009.8,N
1600886315.3,286047009.4,N
1600886335.1,286047011.5,N
1600886355.9,286047012.5,N
1600886375.7,286047013.7,N
1600886395.5,286047012.7,N
1600886415.4,286047013.0,N
1600886435.2,286047015.5,N
1600886455.1,286047014.2,N
1600886456.0,286047014.2,N
1600886475.8,286047015.8,N
1600886495.6,286047016.3,N
1600886515.5,286047017.9,N
1600886535.3,286047019.9,N
1600886555.1,286047017.3,N
1600886575.9,286047019.9,N
1600886595.7,286047020.9,N
1600886615.6,286047020.5,N
1600886635.4,286047023.3,Y
1600886655.2,286047008.5,P
1600886675.1,286047008.1,N
1600886676.0,286047008.1,N
1600886695.8,286047007.7,N
1600886715.7,286047010.6,Y
1600886735.5,286046998.5,P
1600886755.3,286047001.0,N
1600886775.2,286047000.0,N
1600886795.0,286047001.8,N
1600886795.9,286047001.8,N
1600886815.8,286047002.8,N
1600886835.6,286046999.9,N
1600886855.4,286047002.2,N
1600886875.3,286047001.7,N
1600886895.1,286047003.9,N
1600886915.8,286047006.0,N
1600886935.7,286047002.9,N
1600886955.5,286047004.8,N
1600886975.4,286047006.4,N
1600886995.2,286047007.3,N
1600887015.0,286047007.3,N
1600887015.9,286047007.3,N
1600887035.8,286047006.9,N
1600887055.6,286047006.6,N
1600887075.5,286047009.1,Y
1600887095.3,286047004.7,P
1600887115.1,286047004.5,P
1600887135.9,286047004.6,P
1600887155.7,286047004.8,Y
1600887175.5,286047002.6,P
1600887195.4,286046998.5,N
1600887215.2,286046998.9,N
1600887235.1,286046996.6,N
1600887236.0,286046996.6,N
1600887255.8,286046996.8,N
1600887275.6,286046996.7,N
1600887295.5,286046996.6,N
1600887315.3,286046998.9,N
1600887335.1,286046996.5,N
1600887355.9,286046999.2,N
1600887375.7,286046999.4,N
1600887395.6,286047000.9,N
1600887415.4,286047001.1,N
1600887435.2,286047000.8,N
1600887455.1,286047001.2,N
1600887456.0,286047001.2,N
1600887475.8,286047000.9,N
1600887495.6,286047002.5,N
1600887515.5,286047002.4,N
1600887535.3,286047003.5,N
1600887555.2,286047007.1,N
1600887575.9,286047006.1,N
1600887595.7,286047006.1,N
